Location: Zilina
(49.2167°N, 18.7333°E)
Time: 14:26:37
(UTC+02:00)

Daily predictions for brighter satellites

Satellite Brightness Start Highest point End
(mag) Time Altitude Azimuth Time Altitude Azimuth Time Altitude Azimuth
Cosmos 1242 Rocket 4.0 18:12:03 10° SW 18:15:33 42° WNW 18:19:06 10° N
GP-B 3.3 18:12:06 10° N 18:16:27 51° E 18:20:47 10° SSE
Meteor 1-16 Rocket 4.1 18:12:19 10° S 18:17:37 87° E 18:23:04 10° NNE
CZ-2C R/B 4.4 18:13:45 10° SSW 18:17:52 33° W 18:22:06 10° NNW
SKYMED 2 4.4 18:14:08 10° NNE 18:18:00 30° E 18:21:51 10° SSE
Aureole 2 4.2 18:15:11 10° NNW 18:18:12 57° ENE 18:21:30 10° SE
Cosmos 2219 Rocket 2.8 18:13:08 10° NNW 18:18:17 36° NE 18:23:25 10° ESE
Cosmos 1743 Rocket 3.5 18:14:53 10° N 18:19:18 83° ENE 18:23:43 10° S
Meteor 1-11 4.5 18:13:55 10° NNW 18:19:44 82° W 18:25:28 10° S
Cosmos 44 4.4 18:18:09 10° SSE 18:21:14 19° ESE 18:24:18 10° ENE
SL-24 R/B - RUBIN 2 4.3 18:17:14 10° NW 18:22:11 62° SW 18:26:38 10° SSE
CZ-4 R/B 1.6 18:18:03 10° S 18:22:15 80° WSW 18:26:24 10° NNW
Cosmos 2221 3.5 18:19:09 10° SE 18:22:45 26° E 18:26:23 10° NNE
Aureole 2 Rocket 3.7 18:20:14 10° N 18:23:35 27° ENE 18:27:02 10° ESE
CZ-4C R/B 3.4 18:20:09 10° SSE 18:23:57 20° ESE 18:28:04 10° ENE
Cosmos 921 Rocket 3.0 18:19:49 10° NNW 18:24:18 71° ENE 18:28:40 10° SSE
Cosmos 2084 4.0 18:21:26 10° NNW 18:24:54 33° NE 18:28:24 10° ESE
CZ-4 R/B 4.4 18:22:17 10° SSE 18:26:25 74° ENE 18:30:35 10° N
MTI 4.0 18:23:27 10° NNE 18:26:35 48° E 18:29:42 10° S
SMAP 3.9 18:27:11 10° S 18:31:45 55° W 18:36:20 10° NNW
Cosmos 1842 Rocket 3.5 18:27:57 10° S 18:32:22 68° E 18:36:48 10° NNE
GRACE-2 4.4 18:30:17 10° SSE 18:32:37 32° E 18:34:58 10° NNE
SL-8 R/B 4.2 18:28:24 10° SW 18:33:02 48° SSE 18:37:15 12° E
NOAA 12 4.3 18:29:03 10° SE 18:34:10 51° ENE 18:39:20 10° N
METEOR-M 4.1 18:29:41 10° SSE 18:35:00 73° ENE 18:40:21 10° N
Cosmos 1420 Rocket 4.0 18:29:39 10° NNW 18:35:00 80° ENE 18:40:18 10° SSE
EO 1 Del DPAF 3.4 18:32:12 10° NNE 18:35:59 51° E 18:39:44 10° S
APEX 4.0 18:34:33 10° SSE 18:36:48 19° ESE 18:38:02 15° ENE
GRACE-1 4.1 18:34:43 10° SSE 18:37:09 39° E 18:39:37 10° NNE
Cosmos 2366 rocket 4.0 18:33:30 10° S 18:39:43 88° WNW 18:45:55 10° N
ERS-2 3.1 18:36:16 10° S 18:39:54 53° W 18:43:32 10° NNW
Cosmos 1500 Rocket 3.7 18:35:33 10° NNW 18:39:56 80° W 18:44:14 10° S
MONITOR-E 4.0 18:38:20 10° SSE 18:41:24 74° ENE 18:44:30 10° N
Cosmos 2333 4.2 18:38:05 10° NNW 18:43:49 73° ENE 18:49:34 10° SE
Cosmos 1315 Rocket 2.8 18:39:52 10° N 18:43:58 84° E 18:48:04 10° SSE
Landsat 4 3.9 18:40:21 10° N 18:44:05 74° WNW 18:47:47 10° SSW
BREEZE M DEB (TANK) 2.3 18:37:41 10° W 18:44:06 85° SSW 18:46:06 17° ESE
Cosmos 2237 4.5 18:42:16 10° NNW 18:48:00 74° WSW 18:53:42 10° SSE
Cosmos 1726 3.0 18:46:39 10° SSE 18:49:47 27° E 18:52:55 10° NNE
Thor Agena Rocket 4.3 18:45:45 10° NE 18:50:06 28° E 18:54:23 10° SSE
Abrixas rocket 2.2 18:47:42 10° W 18:51:00 79° S 18:53:04 21° E
Cosmos 44 Rocket 3.8 18:47:55 10° S 18:52:12 36° ESE 18:55:46 14° ENE
Cosmos 2237 Rocket 2.8 18:48:19 10° NNW 18:53:37 37° NE 18:57:54 15° ESE
Gbstr 26 Del rocket 3.8 18:49:42 10° WNW 18:54:27 67° SSW 19:00:18 10° SE
Meteor 1-28 Rocket 3.8 18:51:18 10° N 18:55:04 61° WNW 18:58:47 10° SSW
Resurs 01 Rocket 2.9 19:03:24 20° ENE 19:03:49 20° ENE 19:07:03 10° NNE
Cosmos 1331 Rocket 4.4 18:59:05 10° NNW 19:04:06 43° ENE 19:07:59 16° SE
SL-16 R/B 3.4 19:00:29 10° NNW 19:05:04 24° NE 19:07:11 20° ENE
Cosmos 2227 Rocket 3.7 19:01:58 10° SE 19:04:19 16° ESE 19:04:19 16° ESE
Sich 1 3.3 19:01:24 10° N 19:05:37 45° ENE 19:09:51 10° SSE
COSMO-SKYMED 1 2.5 19:01:52 10° NNE 19:06:15 89° ESE 19:10:35 10° SSW
Lacrosse 5 rocket 2.8 19:04:45 10° WNW 19:08:38 29° N 19:11:10 17° NE
SJ-6B 3.2 19:08:06 23° ESE 19:09:49 36° ENE 19:13:17 10° N
Cosmos 1000 Rocket 4.4 19:03:55 10° N 19:10:13 82° E 19:16:24 10° S
Cosmos 2360 Rocket 4.0 19:09:43 10° NW 19:14:43 33° WSW 19:19:42 10° SSW
Cosmos 1821 Rocket 3.9 19:09:44 10° S 19:15:48 63° E 19:22:01 10° NNE
USA 234 3.8 19:11:24 19° ENE 19:15:51 47° N 19:22:05 10° WNW
FREGAT/IRIS 2.6 19:14:49 30° SE 19:16:01 54° ENE 19:18:57 10° N
Cosmos 1934 Rocket 4.2 19:10:23 10° SSE 19:16:28 50° E 19:22:34 10° NNE
Cosmos 1980 3.8 19:12:18 10° NNW 19:17:53 55° NE 19:21:41 20° SE
Cosmos 1908 3.5 19:14:03 10° SSW 19:17:57 70° W 19:21:52 10° N
Cosmos 1805 Rocket 3.5 19:14:26 10° N 19:18:51 88° E 19:23:15 10° S
DMSP B5D1-3 4.4 19:16:25 10° NNE 19:21:34 76° ESE 19:26:42 10° S
Cosmos 2239 Rocket 4.4 19:15:53 10° S 19:21:57 69° E 19:28:06 10° NNE
ATLAS 5 CENTAUR R/B 3.9 19:19:40 10° NW 19:23:30 19° N 19:26:24 14° NE
COSMOS 2428 3.3 19:19:01 10° NW 19:24:36 58° WSW 19:30:08 10° S
Cosmos 1269 Rocket 3.9 19:19:42 10° S 19:24:55 67° ESE 19:30:11 10° NNE
H-2A R/B 2.6 19:23:09 10° SSE 19:27:01 71° ENE 19:30:58 10° N
Cosmos 2333 Rocket 2.2 19:21:57 10° NNW 19:27:43 86° ENE 19:33:14 11° SSE
Cosmos 1666 Rocket 3.4 19:23:41 10° N 19:28:03 73° E 19:32:22 10° SSE
ALOS 2.8 19:25:40 10° S 19:30:16 59° W 19:34:55 10° NNW
Cosmos 1302 Rocket 4.4 19:27:23 10° NNW 19:32:22 43° ENE 19:33:46 35° E
Cosmos 1633 Rocket 2.9 19:29:28 10° N 19:33:54 69° E 19:37:28 15° SSE
Cosmos 2219 3.1 19:28:22 10° SSW 19:34:04 71° ESE 19:39:48 10° NNE
HJ-1C 3.3 19:33:55 61° E 19:34:06 62° ENE 19:37:31 10° N
Cosmos 1933 Rocket 4.4 19:31:50 10° N 19:35:02 32° NE 19:35:02 32° NE
FENGYUN 3A 4.2 19:31:03 10° S 19:36:23 60° W 19:41:46 10° NNW
Cosmos 2123 Rocket 3.9 19:35:19 10° N 19:41:36 82° E 19:47:52 10° S
Cosmos 2297 Rocket 3.9 19:38:03 10° SSE 19:39:18 16° SSE 19:39:18 16° SSE
Cosmos 1300 2.5 19:41:38 10° S 19:45:27 78° E 19:49:17 10° NNE
Spot 2 Rocket 3.8 19:45:36 43° ENE 19:45:57 43° ENE 19:50:45 10° N
Cosmos 1892 4.3 19:43:03 10° N 19:44:42 22° NNE 19:44:42 22° NNE
CSL-04 DEB 4.2 19:46:32 40° SSE 19:47:57 85° ENE 19:51:59 10° NNW
Cosmos 2098 Rocket 3.9 19:43:26 10° SSW 19:48:17 71° WNW 19:54:30 10° N
Meteor 2-2 Rocket 4.2 19:42:59 10° S 19:48:32 57° E 19:54:03 10° NNE
Iridium 4 Rocket 4.3 19:43:08 10° SSW 19:48:45 62° W 19:54:37 10° N
Cosmos 1605 Rocket 3.9 19:44:15 10° S 19:50:12 60° E 19:56:12 10° NNE
Cosmos 494 Rocket 4.3 19:45:59 10° S 19:50:06 44° SE 19:50:06 44° SE
MOS 1-B Rocket 3.9 19:47:31 24° SSE 19:51:02 69° ENE 19:57:21 10° NNW
CZ-2D R/B 3.5 19:51:54 53° NNE 19:51:54 53° NNE 19:55:08 10° N
Cosmos 1110 Rocket 4.1 19:46:11 10° NNW 19:51:32 77° WSW 19:55:19 19° SSE
USA 32 4.0 19:47:39 10° N 19:52:51 60° E 19:54:17 44° SE
Cosmos 967 Rocket 4.4 19:46:22 10° NW 19:52:52 76° NE 19:55:31 38° SE
Meteor 2-10 3.8 19:49:08 10° S 19:54:10 82° E 19:59:22 10° NNE
Aureole 2 Rocket 4.5 19:55:09 10° NW 19:58:40 33° WSW 20:02:17 10° S
Cosmos 2221 4.2 19:56:13 10° SW 20:00:11 35° WNW 20:04:13 10° N
H-2A R/B 4.4 20:02:28 11° NNE 20:02:28 11° NNE 20:02:55 10° NNE
Cosmos 44 3.3 19:57:41 10° SW 20:01:59 63° NW 20:03:15 42° NNE
Cosmos 2219 Rocket 3.1 19:57:03 10° NW 20:02:23 46° WSW 20:07:43 10° S
Cosmos 2084 4.4 20:00:54 10° WNW 20:04:25 36° SW 20:05:13 32° SSW
CZ-4C R/B 2.2 20:06:11 10° SW 20:11:34 82° NW 20:14:12 35° NE
SL-8 R/B 3.6 20:10:34 10° W 20:15:13 80° SW 20:15:13 80° SW
Cosmos 1447 Rocket 4.4 20:13:30 10° N 20:19:53 88° E 20:22:26 39° S
USA 267 4.1 20:22:48 31° SSE 20:22:48 31° SSE 20:26:47 10° SSW
Envisat 2.8 20:20:57 85° NE 20:20:57 85° NE 20:26:00 10° NNW
Cosmos 1726 4.4 20:21:57 10° SW 20:25:02 25° WNW 20:28:08 10° NNW
Cosmos 1470 Rocket 4.0 20:21:53 10° NNW 20:25:52 61° NW 20:25:52 61° NW
Thor Agena Rocket 4.5 20:24:44 10° N 20:29:36 46° WNW 20:34:25 10° SW
Cosmos 44 Rocket 4.3 20:29:14 10° WSW 20:33:41 41° NW 20:34:31 38° NNW
Cosmos 2237 Rocket 3.1 20:32:23 10° NW 20:37:48 45° WSW 20:39:46 33° SSW
Resurs 01 Rocket 2.6 20:40:59 44° NW 20:40:59 44° NW 20:44:18 10° NNW
Lacrosse 5 rocket 3.5 20:44:46 10° NW 20:46:51 24° NNW 20:46:51 24° NNW
Cosmos 2227 Rocket 3.3 20:43:15 10° SSW 20:46:16 33° SSW 20:46:16 33° SSW
SL-16 R/B 2.4 20:44:10 10° NNW 20:49:04 66° NW 20:49:04 66° NW
USA 234 3.2 20:58:45 75° N 20:58:45 75° N 21:05:03 10° NW
ATLAS 5 CENTAUR R/B 3.7 21:04:35 10° NW 21:07:56 29° N 21:07:56 29° N
H-2A R/B 4.5 21:43:06 16° N 21:43:06 16° N 21:44:13 10° N
CZ-4C R/B 4.2 21:56:03 10° W 21:59:25 26° NW 21:59:25 26° NW
